"Pseudo-MPEC" for C5R9P52

Created 2021 Jun 13 15:07:14 UT using Find_Orb

Click here for an explanation of pseudo-MPECs

 
 Astrometry: 
     C5R9P52  C2021 05 13qhBcbfOoo@lQkG]JPeyqtVf`c7+e/sbLkJmt@eC6Astrometry+5F51
     C5R9P52  C2021 05 13AP]$Tgi-^cd%#Mpbl%6T,'XyyE5#50Trhb_Wpwt4Ras:-RPb^X@7F51
     C5R9P52  C2021 05 134s/Yb3nrA@`)YqS1Fg3x(`l6mCR+ULwiF,.?K[`Euj%mw6me#Em7F51
     C5R9P52  C2021 06 11.39393522 00 16.93 -09 03 10.9    ~6BA7 21.21GVNEOCPG96
     C5R9P52  C2021 06 11.39916222 00 17.66 -09 03 12.4    ~6BA7 20.99GVNEOCPG96
     C5R9P52  C2021 06 11.40963722 00 19.08 -09 03 15.4    ~6BA7 21.15GVNEOCPG96
     C5R9P52 mC2021 06 11.43878922 00 23.03 -09 03 22.1    ~6BBM 21.21GVNEOCPV06
     C5R9P52 mC2021 06 11.44039922 00 23.24 -09 03 22.9    ~6BBM 21.19GVNEOCPV06
     C5R9P52 mC2021 06 11.44200922 00 23.45 -09 03 23.3    ~6BBM 21.27GVNEOCPV06
     C5R9P52 mC2021 06 11.44361922 00 23.69 -09 03 23.7    ~6BBM 21.61GVNEOCPV06
     C5R9P52 !C2021 06 12]145pCbmf.Cp?H+m'JLNGAftfZ8W=#FSsCoA0WA-M:UYtH`xuhFkJ04
     C5R9P52 !C2021 06 12/2eOFW`Z,K.*@):wJG$V79$w7Se7EN$dWJBhV$m.3G0q#ijY)8XtJ04
     C5R9P52 !C2021 06 12Ew2Dredacted;L6/):+!]aclickZPhd'ENSHqC\xLNVsSfY'=q2TJ04
     C5R9P52 KC2021 06 12.34686722 02 30.47 -09 07 23.3    ~6C9M 21.71GVNEOCPI52
     C5R9P52 KC2021 06 12Mx^-A5@+hB1$7R07d$xwZ%:+k39exL`Ta_OIb`'w4Mh:kF8h[q]fH21
     C5R9P52 KC2021 06 12bJ5XRP2mVrB%4\-P3A#5H'k]xNJ`R*@Absqt@NFc-ZEne3ihi$kkH21
     C5R9P52 KC2021 06 12+\O)dSC]d]y7/MW7t@D.@msS\B;-gip^-I'Ihere`E`_\og:,a4+H21
     C5R9P52 KC2021 06 12.36529322 02 32.91 -09 07 29.1    ~6C9M 21.06GVNEOCPI52
     C5R9P52 KC2021 06 12.36949922 02 33.48 -09 07 30.1    ~6C9M 20.66GVNEOCPI52
     C5R9P52 KC2021 06 13.35258922 04 48.48 -09 12 10.0    ~6D97       VNEOCPI52
     C5R9P52 KC2021 06 13I.xC;4_7OF%Piu4vyoy_;_yQ/fko'ZPBforxM^gfO2.FU*4+]**BH21
     C5R9P52 KC2021 06 13.35637622 04 48.97 -09 12 12.3    ~6D97       VNEOCPI52
     C5R9P52 KC2021 06 13yDuP-avBV#sRU6Bg@9SN_/2N:oXyl1CgaP)],Kexplanationm/xH21
     C5R9P52 KC2021 06 13.36016322 04 49.39 -09 12 13.7    ~6D97 21.50GVNEOCPI52
     C5R9P52 KC2021 06 13.36394822 04 49.89 -09 12 15.9    ~6D97       VNEOCPI52

Station data:
(F51) Pan-STARRS 1, Haleakala  (N20.707235 W156.255910)  US/Hawaii.
   Observers N. Primak, A. Schultz, S. Watters, J. Thiel, T. Goggia. Measurer
   PS1 Science Consortium. 1.8-m Ritchey-Chrétien + CCD.
(G96) Mt. Lemmon Survey  (N32.442754 W110.788720)  US/Arizona.  Observers T.
   A. Pruyne, B. M. Africano, E. J. Christensen, G. A. Farneth, D. C. Fuls,
   A. R. Gibbs, A. D. Grauer, H. Gröller, J. A. Johnson, R. A. Kowalski, S.
   M. Larson, G. J. Leonard, D. Rankin, R. L. Seaman, F. C. Shelly. 1.5-m
   reflector + 10K CCD.
(H21) Astronomical Research Observatory, Westfield  (N39.483057 W87.968270)
   US/Illinois. 0.76-m f/3.0 astrograph + CCD.
(I52) Steward Observatory, Mt. Lemmon Station  (N32.442547 W110.788920)
   US/Arizona.  Observers T. A. Pruyne, B. M. Africano, E. J. Christensen, G.
   A. Farneth, D. C. Fuls, A. R. Gibbs, A. D. Grauer, H. Gröller, J. A.
   Johnson, R. A. Kowalski, S. M. Larson, G. J. Leonard, D. Rankin, R. L.
   Seaman, F. C. Shelly. 1.0-m reflector + CCD.
(J04) ESA Optical Ground Station, Tenerife  (N28.300924 W16.511830)  Canary
   Islands (Spain).  Observer D. Abreu. Measurers M. Micheli, D. Koschny, E.
   Schwab, M. Busch, A. Knöfel. 1.0-m f/4.4 reflector + CCD.
(V06) Catalina Sky Survey-Kuiper  (N32.416847 W110.732550)  US/Arizona.
   Observers T. A. Pruyne, B. M. Africano, E. J. Christensen, G. A. Farneth,
   D. C. Fuls, A. R. Gibbs, A. D. Grauer, H. Gröller, J. A. Johnson, R. A.
   Kowalski, S. M. Larson, G. J. Leonard, D. Rankin, R. L. Seaman, F. C.
   Shelly. 1.55-m reflector + CCD.

Orbital elements:  C5R9P52
   Perihelion 2021 May 17.015472 +/- 0.041073 TT =  0:22:16 (JD 2459351.515472)
Epoch 2021 Jun 13.0 TT = JDT 2459378.5   Earth MOID: 0.2378   Ma: 0.0188
M   8.49719151 +/- 0.0751892        (J2000 ecliptic)          AutoNEOCP
n   0.31489123 +/- 0.00232697       Peri.  150.27786 +/- 0.0418469
a   2.13974654 +/- 0.010541         Node   109.31410 +/- 0.0476940
e   0.4185148 +/- 0.0024252         Incl.    7.52330 +/- 0.0181550
P   3.13                   H 21.0   G  0.15   U  8.7  
q 1.24423081 +/- 0.000951334    Q 3.03526227 +/- 0.0203375
From 25 observations 2021 May 13-June 13; mean residual 0".48
Residuals in arcseconds: 
210513 F51  .07-  .04+    210611 V06  .31+  .11+    210612 I52  .45-  .30+    
210513 F51  .10+  .04-    210612 J04  .14-  .63+    210613 I52  1.2+  .60+    
210513 F51  .03-  .00     210612 J04  .13-  .13-    210613 H21  .37-  .78+    
210611 G96  .13-  .27-    210612 J04  .24-  .19+    210613 I52  1.0+  .54-    
210611 G96  .15+  .38-    210612 I52  .04+  .59+    210613 H21  .69-  .78+    
210611 G96  .11+  .59-    210612 H21  .03+  .11-    210613 I52  .12-  .77-    
210611 V06  .19+  .43+    210612 H21  .18-  .25-    210613 I52  .09-  1.8-    
210611 V06  .08+  .06+    210612 H21  .30+  .07-    
210611 V06  .02-  .08+    210612 I52  .54-  .09+    

Ephemerides (geocentric):
Date (UTC) HH   RA              Dec         delta   r     elong  mag " sig PA
---- -- -- --  -------------   -----------  ------ ------ -----  --- ---- ---
2021 06 13 15  22 05 24.429   -09 13 20.32  .47407 1.2741 112.4 21.7 .171 149
2021 06 13 16  22 05 30.051   -09 13 32.84  .47402 1.2742 112.4 21.7 .178 150
2021 06 13 17  22 05 35.668   -09 13 45.38  .47397 1.2742 112.4 21.7 .185 151
2021 06 13 18  22 05 41.280   -09 13 57.96  .47392 1.2743 112.5 21.7 .193 153
2021 06 13 19  22 05 46.887   -09 14 10.58  .47387 1.2744 112.5 21.7 .200 154
2021 06 13 20  22 05 52.489   -09 14 23.23  .47382 1.2745 112.5 21.7 .208 155
2021 06 13 21  22 05 58.086   -09 14 35.91  .47376 1.2746 112.5 21.7 .216 156
2021 06 13 22  22 06 03.678   -09 14 48.62  .47371 1.2747 112.5 21.7 .223 157
2021 06 13 23  22 06 09.266   -09 15 01.37  .47366 1.2748 112.6 21.7 .231 158
2021 06 14 00  22 06 14.848   -09 15 14.15  .47361 1.2749 112.6 21.7 .239 159
2021 06 14 01  22 06 20.426   -09 15 26.97  .47356 1.2750 112.6 21.7 .247 159
2021 06 14 02  22 06 25.998   -09 15 39.82  .47351 1.2750 112.6 21.7 .256 160
2021 06 14 03  22 06 31.566   -09 15 52.71  .47346 1.2751 112.6 21.7 .264 161
2021 06 14 04  22 06 37.128   -09 16 05.62  .47341 1.2752 112.7 21.7 .272 161
2021 06 14 05  22 06 42.686   -09 16 18.58  .47336 1.2753 112.7 21.7 .280 162
2021 06 14 06  22 06 48.239   -09 16 31.56  .47331 1.2754 112.7 21.7 .289 163
2021 06 14 07  22 06 53.786   -09 16 44.58  .47326 1.2755 112.7 21.7 .297 163
2021 06 14 08  22 06 59.329   -09 16 57.64  .47321 1.2756 112.7 21.7 .306 164
2021 06 14 09  22 07 04.867   -09 17 10.72  .47316 1.2757 112.8 21.7 .314 164
2021 06 14 10  22 07 10.400   -09 17 23.85  .47311 1.2758 112.8 21.7 .323 165
2021 06 14 11  22 07 15.928   -09 17 37.00  .47306 1.2759 112.8 21.7 .332 165
2021 06 14 12  22 07 21.450   -09 17 50.19  .47301 1.2759 112.8 21.7 .341 165
2021 06 14 13  22 07 26.968   -09 18 03.42  .47296 1.2760 112.8 21.7 .349 166
2021 06 14 14  22 07 32.481   -09 18 16.67  .47291 1.2761 112.9 21.7 .358 166
2021 06 14 15  22 07 37.989   -09 18 29.97  .47286 1.2762 112.9 21.7 .367 167
2021 06 14 16  22 07 43.492   -09 18 43.29  .47281 1.2763 112.9 21.7 .376 167
2021 06 14 17  22 07 48.990   -09 18 56.65  .47276 1.2764 112.9 21.7 .385 167
2021 06 14 18  22 07 54.483   -09 19 10.05  .47271 1.2765 112.9 21.7 .394 168
2021 06 14 19  22 07 59.971   -09 19 23.47  .47266 1.2766 113.0 21.7 .403 168
2021 06 14 20  22 08 05.454   -09 19 36.94  .47261 1.2767 113.0 21.7 .413 168
2021 06 14 21  22 08 10.932   -09 19 50.43  .47256 1.2768 113.0 21.7 .422 169
2021 06 14 22  22 08 16.405   -09 20 03.96  .47251 1.2769 113.0 21.7 .431 169
2021 06 14 23  22 08 21.873   -09 20 17.53  .47246 1.2770 113.0 21.7 .441 169
2021 06 15 00  22 08 27.336   -09 20 31.13  .47241 1.2770 113.1 21.7 .450 169
2021 06 15 01  22 08 32.794   -09 20 44.76  .47236 1.2771 113.1 21.7 .459 170
2021 06 15 02  22 08 38.247   -09 20 58.43  .47231 1.2772 113.1 21.7 .469 170
2021 06 15 03  22 08 43.694   -09 21 12.13  .47226 1.2773 113.1 21.7 .478 170
2021 06 15 04  22 08 49.137   -09 21 25.87  .47222 1.2774 113.1 21.7 .488 170
2021 06 15 05  22 08 54.575   -09 21 39.64  .47217 1.2775 113.2 21.7 .498 171
2021 06 15 06  22 09 00.008   -09 21 53.44  .47212 1.2776 113.2 21.7 .507 171
2021 06 15 07  22 09 05.436   -09 22 07.28  .47207 1.2777 113.2 21.7 .517 171
2021 06 15 08  22 09 10.859   -09 22 21.15  .47202 1.2778 113.2 21.7 .527 171
2021 06 15 09  22 09 16.277   -09 22 35.06  .47197 1.2779 113.2 21.7 .537 171
2021 06 15 10  22 09 21.689   -09 22 49.00  .47192 1.2780 113.3 21.7 .546 172
2021 06 15 11  22 09 27.097   -09 23 02.98  .47187 1.2781 113.3 21.7 .556 172
2021 06 15 12  22 09 32.500   -09 23 16.99  .47183 1.2782 113.3 21.7 .566 172
2021 06 15 13  22 09 37.897   -09 23 31.03  .47178 1.2783 113.3 21.7 .576 172
2021 06 15 14  22 09 43.290   -09 23 45.11  .47173 1.2783 113.3 21.7 .586 172